EW2099 Weather Reports


Display with metric or nautical units.
time (UTC)temp
F
wind
direction
speed
MPH
gust
MPH
rain 1hr
in
rain 24hr
in
rain mn
in
humidity
%
barometer
mb
20260503044512 58 179 0.0 2.0 0.00 0.00 0.00 63 1010.4
20260503043016 58 108 0.0 2.0 0.00 0.00 0.00 63 1010.4
20260503041511 58 141 0.0 2.0 0.00 0.00 0.00 63 1010.4
20260503040009 58 192 0.0 3.0 0.00 0.01 0.00 63 1010.5
20260503034508 57 215 0.0 2.0 0.00 0.01 0.00 63 1010.7
20260503033008 57 207 0.0 1.0 0.00 0.01 0.00 63 1010.7
20260503031506 57 213 0.0 1.0 0.00 0.01 0.00 61 1010.7
20260503030005 58 213 0.0 1.0 0.00 0.02 0.00 61 1010.8
20260503024502 58 204 0.0 1.0 0.00 0.02 0.00 60 1010.9
20260503023001 59 147 0.0 2.0 0.00 0.02 0.00 60 1010.9
20260503021605 59 208 0.0 2.0 0.00 0.02 0.00 61 1011.0
20260503020059 58 155 0.0 2.0 0.00 0.02 0.00 61 1011.1
20260503014559 59 164 0.0 0.0 0.00 0.02 0.00 60 1011.1
20260503013055 59 201 0.0 0.0 0.00 0.02 0.00 60 1011.1
20260503011559 59 121 0.0 2.0 0.00 0.02 0.00 61 1011.5
20260503010051 59 160 0.0 2.0 0.00 0.02 0.00 61 1011.8
20260503004550 59 225 0.0 2.0 0.00 0.02 0.00 62 1012.0
20260503003049 59 126 0.0 1.0 0.00 0.02 0.00 61 1012.0
20260503001558 59 169 0.0 3.0 0.00 0.02 0.00 61 1012.1
20260503000055 59 169 0.0 3.0 0.00 0.02 0.00 60 1012.4
20260502234546 60 179 0.0 1.0 0.00 0.02 0.00 59 1012.1
20260502233059 60 237 0.0 2.0 0.00 0.02 0.00 58 1012.2
20260502231558 60 107 0.0 2.0 0.00 0.02 0.00 59 1012.2
20260502230041 60 124 0.0 3.0 0.00 0.02 0.00 59 1012.3
20260502224539 60 120 0.0 2.0 0.00 0.02 0.00 59 1012.4
20260502223045 60 140 0.0 2.0 0.00 0.02 0.00 59 1012.4
20260502221539 60 128 0.0 1.0 0.00 0.02 0.00 58 1012.5
20260502220039 60 221 0.0 1.0 0.00 0.02 0.02 58 1012.8
20260502214535 60 117 0.0 2.0 0.00 0.02 0.02 58 1012.7
20260502213045 60 189 0.0 1.0 0.00 0.02 0.02 60 1012.8
20260502211543 60 167 0.0 1.0 0.00 0.02 0.02 60 1012.7
20260502210032 60 131 1.0 2.0 0.00 0.02 0.02 60 1012.7
20260502204531 60 115 0.0 1.0 0.00 0.02 0.02 58 1012.9
20260502203033 60 120 0.0 1.0 0.00 0.02 0.02 57 1012.8
20260502201530 60 121 0.0 0.0 0.00 0.02 0.02 56 1012.9
20260502200029 61 120 0.0 1.0 0.00 0.02 0.02 55 1012.9
20260502194529 61 128 1.0 5.0 0.00 0.02 0.02 54 1013.0
20260502193029 62 136 2.0 7.0 0.00 0.02 0.02 52 1013.1
20260502191531 61 118 0.0 8.0 0.00 0.02 0.02 50 1013.2
20260502190027 61 108 0.0 3.0 0.00 0.02 0.02 50 1013.2
20260502184525 61 113 0.0 2.0 0.00 0.02 0.02 49 1013.3
20260502183024 61 76 0.0 4.0 0.00 0.02 0.02 47 1013.4
20260502181528 61 73 1.0 5.0 0.00 0.02 0.02 47 1013.5
20260502163017 63 13 1.0 6.0 0.00 0.02 0.02 47 1014.4
20260502161513 63 49 2.0 9.0 0.00 0.02 0.02 47 1014.5
20260502151506 63 60 3.0 9.0 0.00 0.02 0.02 47 1015.3
20260502123049 65 323 3.0 6.0 0.00 0.02 0.02 42 1017.5
20260502121549 65 311 2.0 7.0 0.00 0.02 0.02 40 1017.8
20260502114543 65 264 2.0 9.0 0.00 0.02 0.02 40 1017.9
20260502113041 65 266 1.0 7.0 0.00 0.02 0.02 39 1018.2
20260502111540 66 289 2.0 6.0 0.00 0.02 0.02 39 1018.1
20260502110037 65 37 1.0 6.0 0.00 0.02 0.02 41 1018.2
20260502104543 64 42 3.0 9.0 0.00 0.02 0.02 42 1018.5
20260502103030 64 276 2.0 9.0 0.00 0.02 0.02 48 1018.6
20260502101531 64 306 1.0 7.0 0.00 0.02 0.02 49 1018.7
20260502091526 63 55 2.0 7.0 0.00 0.02 0.02 49 1019.1
20260502071507 58 217 1.0 4.0 0.00 0.02 0.02 64 1019.1
20260502070008 58 229 0.0 4.0 0.00 0.02 0.02 64 1019.1
20260502064510 57 175 0.0 3.0 0.00 0.02 0.02 65 1018.9
20260502063006 57 224 0.0 2.0 0.00 0.02 0.02 65 1019.0
20260502061504 57 219 0.0 3.0 0.00 0.02 0.02 65 1019.0
20260502060003 57 190 0.0 3.0 0.00 0.02 0.02 68 1018.9
20260502054505 55 231 0.0 1.0 0.00 0.02 0.02 70 1018.8
20260502053001 55 231 0.0 1.0 0.00 0.02 0.02 71 1018.8
20260502051701 54 214 0.0 0.0 0.00 0.02 0.02 70 1018.9
20260502050100 55 214 0.0 0.0 0.00 0.02 0.02 70 1018.9